Birmingham, AL

9:54 AM CDT on May 28, 2017 (GMT -0500)
Birmingham International

Weather History for KBHM - November, 2013

Change the Weather History Date:

Sunday, November 17, 2013

  Actual Average Record
Temperature  
Mean Temperature 68 °F 54 °F  
Max Temperature 72 °F 65 °F 82 °F (1958)
Min Temperature 63 °F 43 °F 20 °F (1997)
Degree Days  
Heating Degree Days 0 11  
Month to date heating degree days 180 155  
Since 1 July heating degree days 277 282  
Cooling Degree Days 2    
Growing Degree Days 17 (Base 50)    
Moisture  
Dew Point 65 °F    
Average Humidity 88    
Maximum Humidity 97    
Minimum Humidity 78    
Precipitation  
Precipitation 0.01 in 0.17 in 1.26 in (1946)
Month to date precipitation 1.02 2.52  
Year to date precipitation 57.71 46.94  
Snow  
Snow 0.00 in 0.00 in - ()
Month to date snowfall 0.0 0.0  
Since 1 July snowfall 0.0 0.0  
Since 1 September snowfall 0.0 0.0  
Snow Depth 0.00 in    
Sea Level Pressure  
Sea Level Pressure 29.96 in    
Wind  
Wind Speed 8 mph (South)    
Max Wind Speed 16 mph    
Max Gust Speed 24 mph    
Visibility 8 miles    
Events      
T = Trace of Precipitation, MM = Missing Value Source: NWS Daily Summary

Daily Weather History Graph

Daily Weather History Graph

Search for Another Location

Airport or City:

Trip Planner

Search our weather history database for the weather conditions in past years. The results will help you decide how hot, cold, wet, or windy it might be!

Date:

Astronomy

Nov. 17, 2013 Rise Set
Actual Time 6:20 AM CST 4:43 PM CST
Civil Twilight 5:54 AM CST 5:09 PM CST
Nautical Twilight 5:24 AM CST 5:39 PM CST
Astronomical Twilight 4:54 AM CST 6:09 PM CST
Moon 4:59 PM CST (11/17) 6:14 AM CST (11/17)
Length of Visible Light 11h 15m
Length of Day
10h 22m
Full, 100% of the Moon is Illuminated
Nov 17
Full
Nov 25
Last Quarter
Dec 2
New
Dec 9
First Quarter
Dec 17
Full

Hourly Weather History & Observations

Time (CST) Temp. Dew Point Humidity Pressure Visibility Wind Dir Wind Speed Gust Speed Precip Events Conditions
12:53 AM 64.0 °F 57.9 °F 80% 30.06 in 10.0 mi SE 6.9 mph - N/A   Mostly Cloudy
1:53 AM 64.0 °F 57.9 °F 80% 30.04 in 10.0 mi SSE 5.8 mph 19.6 mph N/A   Mostly Cloudy
2:53 AM 64.0 °F 57.9 °F 80% 30.02 in 10.0 mi Variable 5.8 mph - N/A   Mostly Cloudy
3:34 AM 64.4 °F 59.0 °F 83% 30.03 in 10.0 mi SSE 5.8 mph - N/A   Overcast
3:53 AM 64.0 °F 59.0 °F 84% 30.01 in 10.0 mi SSE 5.8 mph 16.1 mph N/A   Overcast
4:53 AM 64.9 °F 60.1 °F 84% 30.00 in 10.0 mi SSE 10.4 mph - N/A   Overcast
5:53 AM 63.0 °F 61.0 °F 93% 29.99 in 8.0 mi SSE 5.8 mph - 0.00 in   Overcast
6:07 AM 64.4 °F 60.8 °F 88% 30.00 in 10.0 mi SSE 4.6 mph - N/A   Overcast
6:53 AM 64.0 °F 62.1 °F 93% 29.98 in 7.0 mi SSE 6.9 mph - N/A   Overcast
7:53 AM 64.9 °F 62.1 °F 90% 29.98 in 10.0 mi SSE 8.1 mph - N/A   Overcast
8:53 AM 66.0 °F 63.0 °F 90% 30.00 in 10.0 mi SSE 8.1 mph 17.3 mph N/A   Overcast
9:29 AM 64.4 °F 62.6 °F 94% 30.02 in 2.5 mi SSE 8.1 mph 18.4 mph 0.00 in   Light Drizzle
9:36 AM 64.4 °F 62.6 °F 94% 30.01 in 5.0 mi SSE 8.1 mph - 0.00 in   Overcast
9:53 AM 66.0 °F 63.0 °F 90% 30.00 in 5.0 mi SSE 6.9 mph - 0.00 in   Overcast
10:53 AM 66.0 °F 64.0 °F 93% 29.98 in 6.0 mi SSE 8.1 mph - N/A   Overcast
11:53 AM 68.0 °F 64.9 °F 90% 29.94 in 10.0 mi SSE 10.4 mph - N/A   Overcast
12:53 PM 69.1 °F 64.9 °F 87% 29.91 in 8.0 mi South 12.7 mph 17.3 mph N/A   Overcast
1:53 PM 70.0 °F 66.0 °F 87% 29.91 in 7.0 mi South 10.4 mph - N/A   Overcast
2:13 PM 69.8 °F 66.2 °F 88% 29.92 in 8.0 mi SSW 11.5 mph - N/A   Overcast
2:53 PM 69.1 °F 66.9 °F 93% 29.89 in 6.0 mi South 10.4 mph - N/A   Overcast
3:50 PM 69.8 °F 66.2 °F 88% 29.92 in 10.0 mi South 11.5 mph - 0.00 in   Light Drizzle
3:53 PM 70.0 °F 66.9 °F 90% 29.90 in 10.0 mi South 10.4 mph - 0.00 in   Light Drizzle
4:25 PM 69.8 °F 66.2 °F 88% 29.93 in 2.0 mi SSW 8.1 mph - 0.00 in   Light Drizzle
4:32 PM 69.8 °F 66.2 °F 88% 29.94 in 1.8 mi SSW 8.1 mph - 0.00 in   Light Drizzle
4:42 PM 69.8 °F 66.2 °F 88% 29.94 in 2.5 mi SSW 9.2 mph - 0.00 in   Light Drizzle
4:51 PM 69.8 °F 66.2 °F 88% 29.94 in 3.0 mi SSW 9.2 mph - 0.01 in   Light Drizzle
4:53 PM 69.1 °F 66.9 °F 93% 29.92 in 3.0 mi SSW 8.1 mph - 0.01 in   Light Drizzle
5:07 PM 69.8 °F 66.2 °F 88% 29.94 in 4.0 mi South 8.1 mph - 0.00 in   Light Drizzle
5:20 PM 69.8 °F 66.2 °F 88% 29.95 in 8.0 mi South 5.8 mph - 0.00 in   Light Drizzle
5:53 PM 70.0 °F 68.0 °F 93% 29.94 in 10.0 mi SSW 8.1 mph - 0.00 in   Overcast
6:53 PM 70.0 °F 68.0 °F 93% 29.93 in 10.0 mi SSW 8.1 mph - N/A   Overcast
7:53 PM 70.0 °F 68.0 °F 93% 29.94 in 10.0 mi SSW 5.8 mph - N/A   Overcast
8:53 PM 71.1 °F 68.0 °F 90% 29.94 in 10.0 mi SSW 8.1 mph - N/A   Overcast
9:29 PM 71.6 °F 68.0 °F 88% 29.97 in 10.0 mi WSW 3.5 mph - N/A   Overcast
9:53 PM 71.1 °F 68.0 °F 90% 29.95 in 10.0 mi SW 5.8 mph - N/A   Overcast
10:34 PM 71.6 °F 69.8 °F 94% 29.97 in 10.0 mi WSW 5.8 mph - N/A   Overcast
10:53 PM 71.1 °F 69.1 °F 93% 29.95 in 10.0 mi WSW 8.1 mph - N/A   Mostly Cloudy
11:53 PM 71.1 °F 69.1 °F 93% 29.95 in 9.0 mi SW 9.2 mph - N/A   Overcast